| time (UTC) | temp F | wind direction | speed MPH | gust MPH | rain 1hr in | rain 24hr in | rain mn in | humidity % | barometer mb |
| 20260905162521 | 71 | 23 | 5.0 | 10.0 | 0.00 | 0.00 | 0.00 | 54 | 1025.6 |
| 20260905161522 | 72 | 338 | 3.0 | 7.0 | 0.00 | 0.00 | 0.00 | 52 | 1025.4 |
| 20260905160522 | 73 | 45 | 4.0 | 9.0 | 0.00 | 0.00 | 0.00 | 51 | 1025.4 |
| 20260905155518 | 73 | 225 | 2.0 | 6.0 | 0.00 | 0.00 | 0.00 | 49 | 1025.4 |
| 20260905154519 | 73 | 315 | 4.0 | 9.0 | 0.00 | 0.00 | 0.00 | 50 | 1025.3 |
| 20260905153522 | 74 | 248 | 3.0 | 9.0 | 0.00 | 0.00 | 0.00 | 48 | 1025.7 |
| 20260905152521 | 75 | 0 | 4.0 | 8.0 | 0.00 | 0.00 | 0.00 | 47 | 1025.7 |
| 20260905151521 | 75 | 23 | 3.0 | 5.0 | 0.00 | 0.00 | 0.00 | 49 | 1025.9 |
| 20260905150519 | 76 | 225 | 2.0 | 5.0 | 0.00 | 0.00 | 0.00 | 45 | 1025.8 |
| 20260905145537 | 76 | 225 | 4.0 | 12.0 | 0.00 | 0.00 | 0.00 | 47 | 1025.9 |
| 20260905144519 | 75 | 248 | 2.0 | 7.0 | 0.00 | 0.00 | 0.00 | 48 | 1025.9 |
| 20260905143527 | 75 | 225 | 3.0 | 7.0 | 0.00 | 0.00 | 0.00 | 45 | 1026.0 |
| 20260905142518 | 75 | 248 | 4.0 | 9.0 | 0.00 | 0.00 | 0.00 | 45 | 1026.1 |
| 20260905141518 | 75 | 270 | 4.0 | 8.0 | 0.00 | 0.00 | 0.00 | 45 | 1026.2 |
| 20260905140518 | 75 | 225 | 7.0 | 12.0 | 0.00 | 0.00 | 0.00 | 45 | 1026.2 |
| 20260905135516 | 75 | 248 | 4.0 | 12.0 | 0.00 | 0.00 | 0.00 | 44 | 1026.6 |
| 20260905134521 | 75 | 248 | 6.0 | 11.0 | 0.00 | 0.00 | 0.00 | 45 | 1026.5 |
| 20260905133522 | 75 | 293 | 4.0 | 11.0 | 0.00 | 0.00 | 0.00 | 52 | 1026.6 |
| 20260905131541 | 74 | 270 | 6.0 | 11.0 | 0.00 | 0.00 | 0.00 | 49 | 1026.3 |
| 20260905130519 | 74 | 45 | 3.0 | 7.0 | 0.00 | 0.00 | 0.00 | 53 | 1026.1 |
| 20260905125520 | 72 | 90 | 3.0 | 5.0 | 0.00 | 0.00 | 0.00 | 56 | 1026.2 |
| 20260905124518 | 71 | 0 | 3.0 | 7.0 | 0.00 | 0.00 | 0.00 | 53 | 1026.2 |
| 20260905123537 | 72 | 0 | 4.0 | 8.0 | 0.00 | 0.00 | 0.00 | 54 | 1026.2 |
| 20260905122517 | 71 | 0 | 5.0 | 13.0 | 0.00 | 0.00 | 0.00 | 53 | 1026.2 |
| 20260905121518 | 70 | 225 | 4.0 | 8.0 | 0.00 | 0.00 | 0.00 | 54 | 1026.0 |
| 20260905120518 | 68 | 338 | 3.0 | 8.0 | 0.00 | 0.00 | 0.00 | 55 | 1026.3 |
| 20260905115518 | 69 | 293 | 2.0 | 5.0 | 0.00 | 0.00 | 0.00 | 57 | 1026.3 |
| 20260905114517 | 69 | 23 | 2.0 | 4.0 | 0.00 | 0.00 | 0.00 | 58 | 1026.4 |
| 20260905113517 | 69 | 23 | 2.0 | 5.0 | 0.00 | 0.00 | 0.00 | 59 | 1026.6 |
| 20260905112537 | 69 | 293 | 3.0 | 8.0 | 0.00 | 0.00 | 0.00 | 59 | 1026.3 |
| 20260905111537 | 69 | 338 | 4.0 | 10.0 | 0.00 | 0.00 | 0.00 | 57 | 1026.2 |
| 20260905110516 | 69 | 68 | 3.0 | 5.0 | 0.00 | 0.00 | 0.00 | 56 | 1026.3 |
| 20260905105516 | 68 | 23 | 4.0 | 8.0 | 0.00 | 0.00 | 0.00 | 58 | 1026.4 |
| 20260905104518 | 70 | 315 | 4.0 | 11.0 | 0.00 | 0.00 | 0.00 | 55 | 1026.6 |
| 20260905103516 | 71 | 270 | 4.0 | 11.0 | 0.00 | 0.00 | 0.00 | 55 | 1026.6 |
| 20260905102516 | 69 | 248 | 5.0 | 11.0 | 0.00 | 0.00 | 0.00 | 56 | 1026.6 |
| 20260905101518 | 67 | 248 | 6.0 | 10.0 | 0.00 | 0.00 | 0.00 | 63 | 1026.4 |
| 20260905100519 | 65 | 270 | 3.0 | 7.0 | 0.00 | 0.00 | 0.00 | 65 | 1026.3 |
| 20260905095518 | 65 | 225 | 4.0 | 7.0 | 0.00 | 0.00 | 0.00 | 67 | 1026.4 |
| 20260905094516 | 64 | 270 | 4.0 | 9.0 | 0.00 | 0.00 | 0.00 | 67 | 1026.1 |
| 20260905093516 | 64 | 270 | 3.0 | 7.0 | 0.00 | 0.00 | 0.00 | 66 | 1025.9 |
| 20260905092518 | 64 | 248 | 4.0 | 9.0 | 0.00 | 0.00 | 0.00 | 68 | 1025.8 |
| 20260905091525 | 64 | 248 | 2.0 | 5.0 | 0.00 | 0.00 | 0.00 | 70 | 1026.0 |
| 20260905090518 | 63 | 248 | 2.0 | 6.0 | 0.00 | 0.00 | 0.00 | 71 | 1025.8 |
| 20260905085521 | 63 | 225 | 3.0 | 6.0 | 0.00 | 0.00 | 0.00 | 72 | 1026.0 |
| 20260905084518 | 62 | 270 | 3.0 | 7.0 | 0.00 | 0.00 | 0.00 | 73 | 1025.7 |
| 20260905083518 | 61 | 270 | 3.0 | 7.0 | 0.00 | 0.00 | 0.00 | 73 | 1025.6 |
| 20260905082540 | 61 | 270 | 4.0 | 7.0 | 0.00 | 0.00 | 0.00 | 74 | 1025.4 |
| 20260905081520 | 61 | 270 | 2.0 | 5.0 | 0.00 | 0.00 | 0.00 | 74 | 1025.1 |
| 20260905080520 | 60 | 270 | 3.0 | 7.0 | 0.00 | 0.00 | 0.00 | 74 | 1025.2 |
| 20260905075519 | 60 | 270 | 2.0 | 7.0 | 0.00 | 0.00 | 0.00 | 75 | 1025.2 |
| 20260905074541 | 60 | 293 | 1.0 | 3.0 | 0.00 | 0.00 | 0.00 | 77 | 1024.9 |
| 20260905073519 | 59 | 0.0 | 2.0 | 0.00 | 0.00 | 0.00 | 79 | 1024.9 | |
| 20260905072520 | 58 | 270 | 1.0 | 3.0 | 0.00 | 0.00 | 0.00 | 81 | 1024.8 |
| 20260905071518 | 57 | 248 | 2.0 | 5.0 | 0.00 | 0.00 | 0.00 | 81 | 1024.8 |
| 20260905070521 | 57 | 225 | 1.0 | 3.0 | 0.00 | 0.00 | 0.00 | 82 | 1024.6 |
| 20260905065525 | 56 | 248 | 2.0 | 4.0 | 0.00 | 0.00 | 0.00 | 82 | 1024.7 |
| 20260905064519 | 55 | 248 | 3.0 | 7.0 | 0.00 | 0.00 | 0.00 | 84 | 1024.6 |
| 20260905063538 | 55 | 248 | 2.0 | 4.0 | 0.00 | 0.00 | 0.00 | 84 | 1024.5 |
| 20260905062521 | 55 | 0 | 1.0 | 4.0 | 0.00 | 0.00 | 0.00 | 84 | 1024.4 |
| 20260905061518 | 54 | 225 | 1.0 | 3.0 | 0.00 | 0.00 | 0.00 | 83 | 1024.4 |
| 20260905060519 | 55 | 225 | 2.0 | 5.0 | 0.00 | 0.00 | 0.00 | 82 | 1024.3 |
| 20260905055518 | 55 | 248 | 2.0 | 4.0 | 0.00 | 0.00 | 0.00 | 82 | 1024.2 |
| 20260905054522 | 55 | 248 | 1.0 | 3.0 | 0.00 | 0.03 | 0.00 | 82 | 1024.1 |
| 20260905053520 | 55 | 225 | 1.0 | 4.0 | 0.00 | 0.03 | 0.00 | 83 | 1023.9 |
| 20260905052523 | 55 | 248 | 1.0 | 3.0 | 0.00 | 0.03 | 0.00 | 84 | 1023.8 |
| 20260905051518 | 55 | 248 | 3.0 | 6.0 | 0.00 | 0.03 | 0.00 | 85 | 1023.7 |
| 20260905050518 | 55 | 225 | 4.0 | 7.0 | 0.00 | 0.03 | 0.00 | 86 | 1023.7 |
| 20260905045539 | 55 | 225 | 5.0 | 10.0 | 0.00 | 0.03 | 0.00 | 88 | 1023.4 |
| 20260905044518 | 54 | 225 | 4.0 | 8.0 | 0.00 | 0.03 | 0.00 | 89 | 1023.4 |
| 20260905043520 | 53 | 225 | 5.0 | 9.0 | 0.00 | 0.03 | 0.00 | 89 | 1023.4 |
| 20260905042519 | 53 | 225 | 3.0 | 6.0 | 0.00 | 0.03 | 0.00 | 89 | 1023.2 |
| 20260905041540 | 53 | 225 | 3.0 | 8.0 | 0.00 | 0.03 | 0.00 | 89 | 1023.3 |
| 20260905040519 | 53 | 225 | 4.0 | 9.0 | 0.00 | 0.03 | 0.00 | 89 | 1023.0 |
| 20260905035525 | 53 | 248 | 3.0 | 7.0 | 0.00 | 0.03 | 0.00 | 90 | 1023.0 |
| 20260905034519 | 53 | 225 | 3.0 | 7.0 | 0.00 | 0.03 | 0.00 | 90 | 1022.9 |
| 20260905033519 | 53 | 248 | 2.0 | 8.0 | 0.00 | 0.03 | 0.00 | 90 | 1022.8 |
| 20260905032519 | 52 | 248 | 2.0 | 5.0 | 0.00 | 0.03 | 0.00 | 90 | 1022.6 |
| 20260905031518 | 52 | 248 | 2.0 | 6.0 | 0.00 | 0.03 | 0.00 | 88 | 1022.7 |
| 20260905030519 | 52 | 0.0 | 1.0 | 0.00 | 0.03 | 0.00 | 87 | 1022.6 | |
| 20260905025517 | 53 | 0 | 1.0 | 2.0 | 0.00 | 0.03 | 0.00 | 87 | 1022.5 |
| 20260905024519 | 53 | 0 | 2.0 | 3.0 | 0.00 | 0.03 | 0.00 | 87 | 1022.4 |
| 20260905023601 | 53 | 23 | 1.0 | 2.0 | 0.00 | 0.03 | 0.00 | 87 | 1022.5 |
| 20260905022520 | 54 | 248 | 1.0 | 2.0 | 0.00 | 0.03 | 0.00 | 87 | 1022.4 |
| 20260905021519 | 54 | 248 | 2.0 | 7.0 | 0.00 | 0.03 | 0.00 | 87 | 1022.2 |
| 20260905020517 | 54 | 248 | 2.0 | 5.0 | 0.00 | 0.03 | 0.00 | 87 | 1022.2 |
| 20260905015520 | 54 | 225 | 3.0 | 6.0 | 0.00 | 0.03 | 0.00 | 87 | 1022.2 |
| 20260905014522 | 54 | 225 | 3.0 | 6.0 | 0.00 | 0.03 | 0.00 | 87 | 1022.2 |
| 20260905013519 | 54 | 248 | 3.0 | 7.0 | 0.00 | 0.03 | 0.00 | 87 | 1022.3 |
| 20260905012517 | 54 | 248 | 3.0 | 5.0 | 0.00 | 0.03 | 0.00 | 87 | 1022.3 |
| 20260905011519 | 54 | 225 | 2.0 | 4.0 | 0.00 | 0.03 | 0.00 | 86 | 1022.2 |
| 20260905010539 | 54 | 225 | 3.0 | 5.0 | 0.00 | 0.03 | 0.00 | 86 | 1022.1 |
| 20260905005519 | 54 | 225 | 2.0 | 8.0 | 0.00 | 0.03 | 0.00 | 86 | 1022.1 |
| 20260905004538 | 55 | 225 | 3.0 | 5.0 | 0.00 | 0.03 | 0.00 | 85 | 1022.2 |
| 20260905003517 | 55 | 248 | 3.0 | 5.0 | 0.00 | 0.03 | 0.00 | 85 | 1022.1 |
| 20260905002519 | 55 | 225 | 3.0 | 5.0 | 0.00 | 0.03 | 0.00 | 85 | 1022.1 |
| 20260905001519 | 55 | 225 | 3.0 | 7.0 | 0.00 | 0.03 | 0.00 | 85 | 1022.0 |
| 20260905000517 | 55 | 225 | 4.0 | 8.0 | 0.00 | 0.03 | 0.00 | 85 | 1021.8 |
| 20260904235518 | 55 | 225 | 4.0 | 9.0 | 0.00 | 0.03 | 0.00 | 85 | 1021.7 |
| 20260904234518 | 55 | 225 | 4.0 | 7.0 | 0.00 | 0.03 | 0.00 | 85 | 1021.7 |
| 20260904233519 | 55 | 225 | 4.0 | 7.0 | 0.00 | 0.03 | 0.00 | 85 | 1021.6 |
| 20260904232537 | 55 | 225 | 4.0 | 7.0 | 0.00 | 0.03 | 0.00 | 84 | 1021.6 |
| 20260904231528 | 55 | 225 | 3.0 | 5.0 | 0.00 | 0.03 | 0.00 | 84 | 1021.7 |
| 20260904230523 | 55 | 225 | 3.0 | 6.0 | 0.00 | 0.03 | 0.00 | 83 | 1021.7 |
| 20260904225519 | 55 | 225 | 2.0 | 5.0 | 0.00 | 0.03 | 0.03 | 83 | 1021.6 |
| 20260904224517 | 56 | 225 | 3.0 | 5.0 | 0.00 | 0.03 | 0.03 | 83 | 1021.6 |
| 20260904223519 | 56 | 225 | 5.0 | 9.0 | 0.00 | 0.03 | 0.03 | 83 | 1021.3 |
| 20260904222541 | 56 | 225 | 6.0 | 11.0 | 0.00 | 0.03 | 0.03 | 83 | 1021.5 |
| 20260904221517 | 56 | 225 | 5.0 | 9.0 | 0.00 | 0.03 | 0.03 | 83 | 1021.5 |
| 20260904220540 | 56 | 225 | 5.0 | 8.0 | 0.00 | 0.03 | 0.03 | 83 | 1021.5 |
| 20260904215519 | 56 | 225 | 4.0 | 9.0 | 0.00 | 0.03 | 0.03 | 83 | 1021.4 |
| 20260904214523 | 56 | 225 | 4.0 | 8.0 | 0.00 | 0.03 | 0.03 | 83 | 1021.2 |
| 20260904213524 | 56 | 225 | 4.0 | 6.0 | 0.00 | 0.03 | 0.03 | 83 | 1020.9 |
| 20260904212519 | 57 | 225 | 3.0 | 6.0 | 0.00 | 0.03 | 0.03 | 83 | 1020.9 |
| 20260904211519 | 57 | 225 | 4.0 | 7.0 | 0.00 | 0.03 | 0.03 | 83 | 1021.0 |
| 20260904210519 | 57 | 225 | 4.0 | 6.0 | 0.00 | 0.03 | 0.03 | 82 | 1021.0 |
| 20260904205520 | 57 | 225 | 3.0 | 6.0 | 0.00 | 0.03 | 0.03 | 82 | 1021.0 |
| 20260904204517 | 57 | 225 | 4.0 | 7.0 | 0.00 | 0.03 | 0.03 | 82 | 1020.9 |
| 20260904203542 | 57 | 225 | 4.0 | 7.0 | 0.00 | 0.03 | 0.03 | 81 | 1020.9 |
| 20260904202559 | 58 | 225 | 4.0 | 7.0 | 0.00 | 0.03 | 0.03 | 81 | 1020.9 |
| 20260904201518 | 58 | 225 | 3.0 | 5.0 | 0.00 | 0.03 | 0.03 | 80 | 1020.9 |
| 20260904200618 | 58 | 225 | 3.0 | 6.0 | 0.00 | 0.03 | 0.03 | 79 | 1020.6 |
| 20260904195520 | 59 | 225 | 3.0 | 6.0 | 0.00 | 0.03 | 0.03 | 78 | 1020.6 |
| 20260904194518 | 59 | 225 | 3.0 | 6.0 | 0.00 | 0.03 | 0.03 | 77 | 1020.5 |
| 20260904193522 | 60 | 225 | 4.0 | 7.0 | 0.00 | 0.03 | 0.03 | 76 | 1020.3 |
| 20260904192620 | 61 | 225 | 4.0 | 6.0 | 0.00 | 0.03 | 0.03 | 75 | 1020.4 |
| 20260904191520 | 61 | 248 | 3.0 | 7.0 | 0.00 | 0.03 | 0.03 | 74 | 1020.3 |
| 20260904190520 | 61 | 248 | 5.0 | 11.0 | 0.00 | 0.03 | 0.03 | 73 | 1020.2 |
| 20260904185522 | 62 | 248 | 4.0 | 10.0 | 0.00 | 0.03 | 0.03 | 72 | 1020.2 |
| 20260904184520 | 62 | 248 | 6.0 | 12.0 | 0.00 | 0.03 | 0.03 | 72 | 1020.1 |
| 20260904183519 | 63 | 270 | 5.0 | 14.0 | 0.00 | 0.03 | 0.03 | 71 | 1020.0 |
| 20260904182520 | 63 | 248 | 6.0 | 12.0 | 0.00 | 0.03 | 0.03 | 72 | 1019.8 |
| 20260904181524 | 63 | 248 | 7.0 | 13.0 | 0.00 | 0.03 | 0.03 | 72 | 1019.6 |
| 20260904180520 | 63 | 248 | 6.0 | 15.0 | 0.00 | 0.03 | 0.03 | 72 | 1019.7 |
| 20260904175520 | 64 | 225 | 6.0 | 15.0 | 0.00 | 0.03 | 0.03 | 72 | 1019.7 |
| 20260904174601 | 64 | 270 | 5.0 | 9.0 | 0.00 | 0.03 | 0.03 | 71 | 1019.6 |
| 20260904173543 | 63 | 270 | 6.0 | 13.0 | 0.00 | 0.03 | 0.03 | 71 | 1019.5 |
| 20260904172520 | 64 | 248 | 6.0 | 16.0 | 0.00 | 0.03 | 0.03 | 71 | 1019.3 |
| 20260904171619 | 64 | 225 | 6.0 | 11.0 | 0.00 | 0.03 | 0.03 | 70 | 1019.4 |
| 20260904170518 | 64 | 248 | 7.0 | 14.0 | 0.00 | 0.03 | 0.03 | 69 | 1019.6 |
| 20260904165520 | 64 | 248 | 10.0 | 17.0 | 0.00 | 0.03 | 0.03 | 68 | 1019.3 |
| 20260904164520 | 64 | 248 | 7.0 | 14.0 | 0.00 | 0.03 | 0.03 | 68 | 1019.2 |
| 20260904163519 | 64 | 248 | 8.0 | 16.0 | 0.00 | 0.03 | 0.03 | 68 | 1019.0 |